Regional Weather Roundup
Issued by NWS

Home | Current Version | Previous Version | Text Only | Print | Product List | Glossary On
Versions: 1 2 3 4 5 6 7 8 9 10 11 12 13 14 15 16 17 18 19 20 21 22 23 24 25 26 27 28 29 30 31 32 33 34 35 36 37 38 39 40 41 42 43 44 45 46 47 48 49 50
007
ASUS44 KLIX 200513
RWRLA
LOUISIANA WEATHER ROUNDUP
NATIONAL WEATHER SERVICE NEW ORLEANS LA
1100 PM CST THU JAN 19 2017

NOTE: "FAIR" INDICATES FEW OR NO CLOUDS BELOW 12,000 FEET WITH NO
      SIGNIFICANT WEATHER AND/OR OBSTRUCTIONS TO VISIBILITY.
      SKY/WX - SKY CONDITION AND SIGNIFICANT WEATHER.
      TMP - AIR TEMPERATURE.    DP   - DEWPOINT TEMPERATURE.
      RH  - RELATIVE HUMIDITY.  PRES - PRESSURE.
      HX  - HEAT INDEX.         WCI  - WIND CHILL INDEX.

*  THESE STATIONS ARE NOT NWS OR FAA STATIONS AND ARE NOT UNDER
   NWS QUALITY CONTROL.

LAZ040-048-061>063-065-066-069-200600-
SOUTHEAST LOUISIANA

CITY           SKY/WX    TMP DP  RH WIND       PRES   REMARKS
N.O. AUDUBON   NOT AVBL
N.O. INTL ARPT CLEAR     63  61  93 S6        29.84R
N.O. LAKEFRONT CLEAR     64  62  93 S10       29.84R
N.O. DOWNTOWN*   N/A     66  62  87 S6        29.85R
RESERVE*       FAIR      63  61  94 CALM      29.83F
SLIDELL        PTCLDY    59  59 100 S3        29.83S
BATON ROUGE    PTCLDY    62  61  96 S6        29.82R
BOOTHVILLE     CLOUDY    64  63  96 S6        29.87R
BELLE CHASSE   CLEAR     62  61  96 SW3       29.84S
BOGALUSA*      MOCLDY    64  61  88 S3        29.85R
GALLIANO*      CLEAR     62  59  88 S5        29.85S
NEW ROADS*     FOG       60  60 100 CALM      29.82S VSB 1/4
GONZALES*      CLOUDY    62  62 100 CALM      29.83R FOG
HAMMOND*       PTCLDY    61  57  88 CALM      29.83S
HOUMA*         CLEAR     62  62  98 S5        29.85R
PORT FOURCHON* CLEAR     68  64  88 S7        29.85F

$$

LAZ041-044-053-054-200600-
SOUTHWEST LOUISIANA

CITY           SKY/WX    TMP DP  RH WIND       PRES   REMARKS
LAKE CHARLES   MOCLDY    62  61  96 SE3       29.79F
LAFAYETTE      CLEAR     63  61  93 S3        29.81S
PATTERSON      MOCLDY    62  61  96 S5        29.84R
SALT POINT     NOT AVBL
NEW IBERIA     FOG       59  57  93 SE3       29.82S VSB 1/4
CHENAULT AIRPK MOCLDY    60  59  99 CALM      29.80S FOG

$$

LAZ027-028-200600-
CENTRAL LOUISIANA

CITY           SKY/WX    TMP DP  RH WIND       PRES   REMARKS
FORT POLK      MOCLDY    59  58  98 S8        29.77F
ALEXANDRIA INT CLEAR     59  58  96 S7        29.77S
ALEXANDRIA     PTCLDY    58  58 100 CALM      29.78F

$$

LAZ001-002-200600-
NORTHWEST LOUISIANA

CITY           SKY/WX    TMP DP  RH WIND       PRES   REMARKS
SHREVEPORT     MOCLDY    58  57  97 S7        29.73S
BARKSDALE AFB  PTCLDY    52  52 100 S8        29.73S FOG
DTN SHREVEPORT CLEAR     54  53  97 S6        29.73S

$$

LAZ014-016-200600-
NORTHEAST LOUISIANA

CITY           SKY/WX    TMP DP  RH WIND       PRES   REMARKS
MONROE         PTCLDY    59  57  93 S5        29.77S
TALLULAH       PTCLDY    54  53  97 CALM      29.80S FOG

$$





USA.gov is the U.S. government's official web portal to all federal, state and local government web resources and services.